Location: Adavinekkalam
(16.6301°N, 80.7229°E)
Time: 05:33:10
(UTC+00:00)

Cosmos 1455 Rocket - Pass Details

Date: 15 May 2026
Orbit: 597 x 623 km, 82.5° (Epoch: 6 June)

Event Time Altitude Azimuth Distance (km) Brightness Sun altitude
Exits shadow 14:46:37 10° 205° (SSW) 2,014 5.6 -23.8°
Reaches altitude 10° 14:46:42 10° 205° (SSW) 1,983 5.6 -23.9°
Maximum altitude 14:50:51 41° 276° (W) 897 4.2 -24.7°
Drops below altitude 10° 14:55:00 10° 347° (NNW) 1,980 6.2 -25.6°
Sets 14:57:19 0° 354° (N) 2,883 7.0 -26.0°
